Tracking 25648 objects as of 16-May-2022
HD Live streaming from Space Station
objects crossing your sky now

COSMOS 2251 DEB

Track COSMOS 2251 DEB now!
10-day predictions


NORAD ID: 40803
Int'l Code: 1993-036BWG
Perigee: 717.9 km
Apogee: 768.3 km
Inclination: 74.0 °
Period: 99.5 minutes
Semi major axis: 7114 km
RCS: Unknown
Launch date: June 16, 1993
Source: Commonwealth of Independent States (former USSR) (CIS)
Launch site: PLESETSK MISSILE AND SPACE COMPLEX (PKMTR)

Note: This is SATELLITE DEBRIS
aabbcc
Your satellite tracking list
Your tracking list is empty




NASA's NSSDC Master Catalog

Two Line Element Set (TLE):
1 40803U 93036BWG 22135.89570438  .00000905  00000-0  25523-3 0  9997
2 40803  74.0155 345.1494 0035401 159.2986 200.9616 14.46857233398245
Source of the keplerian elements: AFSPC